Home   Weather   Lashkar Gah   Past weeks
Flag for Afghanistan

Past Weather in Lashkar Gah, Afghanistan — Yesterday and Last 2 Weeks

Now
82 °F

Sunny.


Feels Like: 80 °F
Forecast: 78 / 48 °F
Wind: 22 mph from North

Location: Zabol Airport

Current Time: Oct 22, 2019 at 5:02:29 pm

Latest Report: Oct 22, 2019 at 4:30 pm


Visibility: 10 mi

Pressure: 29.98 "Hg (27.42 "Hg at 786m altitude)

Humidity: 14%

Dew Point: 28 °F

Location of Lashkar GahLocation

Past Weather in Lashkar Gah — Graph

°F

Lashkar Gah Temperature Yesterday

Maximum temperature yesterday: 90 °F (at 3:30 pm)
Minimum temperature yesterday: 57 °F (at 4:30 am)
Average temperature yesterday: 75 °F

High & Low Weather Summary for the Past Weeks

 TemperatureHumidityPressure
High100 °F (Oct 8, 3:30 pm)46% (Oct 8, 6:30 am)30.21 "Hg (Oct 8, 6:30 am)
Low52 °F (Oct 20, 4:30 am)10% (Oct 21, 3:30 pm)29.86 "Hg (Oct 7, 3:30 pm)
Average76 °F24%30.03 "Hg
* Reported Oct 7 3:30 pm — Oct 22 3:30 pm, Lashkar Gah. Weather by CustomWeather, © 2019

Note: Actual official high and low records may vary slightly from our data, if they occured in-between our weather recording intervals... More about our weather records

Advertising

Lashkar Gah Weather History for the Previous 24 Hours

Scroll right to see more
 ConditionsComfort  
Time TempWeatherWind HumidityBarometerVisibility
3:30 pm
Tue, Oct 22
82 °FSunny.26 mph15%29.98 "Hg10 mi
2:30 pm82 °FSunny.24 mph15%29.98 "Hg10 mi
1:30 pm82 °FSunny.24 mph15%29.98 "Hg10 mi
12:30 pm81 °FSunny.29 mph16%30.01 "Hg10 mi
11:30 am77 °FSunny.31 mph17%30.04 "Hg10 mi
10:30 am75 °FClear.33 mph18%30.07 "Hg5 mi
9:30 am72 °FSunny.31 mph19%30.07 "Hg10 mi
8:30 am68 °FSunny.29 mph18%30.07 "Hg10 mi
7:30 am66 °FSunny.24 mph19%30.04 "Hg10 mi
6:30 am66 °FClear.24 mph21%30.04 "Hg10 mi
4:30 am68 °FClear.26 mph24%29.98 "Hg10 mi
1:30 am70 °FClear.16 mph18%30.01 "Hg10 mi
12:30 am70 °FClear.21 mph20%30.01 "Hg10 mi
11:30 pm
Mon, Oct 21
72 °FClear.22 mph17%30.01 "Hg10 mi
10:30 pm73 °FClear.29 mph16%30.01 "Hg5 mi
9:30 pm75 °FClear.29 mph15%29.98 "Hg5 mi
8:30 pm75 °FClear.22 mph16%29.98 "Hg10 mi
7:30 pm75 °FClear.18 mph16%29.98 "Hg10 mi
6:30 pm79 °FClear.18 mph16%29.95 "Hg10 mi
5:30 pm82 °FSunny.18 mph13%29.95 "Hg10 mi
Weather by CustomWeather, © 2019

See weather overview